DW7628 Weather Reports


time (UTC)temp
C
wind
direction
speed
KPH
gust
KPH
rain 1hr
cm
rain 24hr
cm
rain mn
cm
humidity
%
barometer
mb
20260508085307 21 167 0.0 0.0 0.00 0.00 0.00 60 1010.0
20260508084804 21 285 0.0 0.0 0.00 0.00 0.00 60 1009.9
20260508084305 21 33 0.0 0.0 0.00 0.00 0.00 58 1009.9
20260508083804 21 148 0.0 0.0 0.00 0.00 0.00 62 1009.8
20260508083305 20 39 0.0 0.0 0.00 0.00 0.00 63 1009.8
20260508082306 20 320 0.0 0.0 0.00 0.00 0.00 64 1009.7
20260508081304 20 54 0.0 0.0 0.00 0.00 0.00 65 1009.7
20260508080805 20 6 0.0 0.0 0.00 0.00 0.00 64 1009.7
20260508080304 20 152 0.0 0.0 0.00 0.00 0.00 66 1009.8
20260508075805 19 178 0.0 0.0 0.00 0.00 0.00 71 1009.8
20260508075308 19 35 0.0 0.0 0.00 0.00 0.00 70 1009.9
20260508074804 19 56 0.0 0.0 0.00 0.00 0.00 71 1009.8
20260508074305 19 33 0.0 0.0 0.00 0.00 0.00 70 1009.7
20260508073805 18 228 0.0 0.0 0.00 0.00 0.00 71 1009.6
20260508072805 18 180 0.0 0.0 0.00 0.00 0.00 72 1009.7
20260508072307 18 226 0.0 0.0 0.00 0.00 0.00 73 1009.7
20260508070804 18 48 0.0 0.0 0.00 0.00 0.00 74 1009.5
20260508070304 18 172 0.0 0.0 0.00 0.00 0.00 74 1009.5
20260508065805 18 107 0.0 0.0 0.00 0.00 0.00 76 1009.7
20260508065307 17 43 0.0 0.0 0.00 0.00 0.00 77 1009.7
20260508064805 17 81 0.0 0.0 0.00 0.00 0.00 75 1009.7
20260508064304 17 83 0.0 0.0 0.00 0.00 0.00 74 1009.6
20260508063805 17 56 0.0 0.0 0.00 0.00 0.00 74 1009.6
20260508063305 17 169 0.0 0.0 0.00 0.00 0.00 77 1009.6
20260508062804 16 209 0.0 0.0 0.00 0.00 0.00 79 1009.6
20260508062306 16 168 0.0 0.0 0.00 0.00 0.00 79 1009.6
20260508061304 15 251 0.0 0.0 0.00 0.00 0.00 82 1009.6
20260508060804 15 248 0.0 0.0 0.00 0.00 0.00 82 1009.5
20260508060305 15 116 0.0 0.0 0.00 0.00 0.00 83 1009.4
20260508055804 15 276 0.0 0.0 0.00 0.00 0.00 83 1009.3
20260508055306 15 90 0.0 0.0 0.00 0.00 0.00 84 1009.3
20260508054804 14 91 0.0 0.0 0.00 0.00 0.00 84 1009.3
20260508054304 14 90 0.0 0.0 0.00 0.00 0.00 84 1009.3
20260508053805 14 81 0.0 0.0 0.00 0.00 0.00 84 1009.2
20260508053304 14 212 0.0 0.0 0.00 0.00 0.00 85 1009.2
20260508052804 14 251 0.0 0.0 0.00 0.00 0.00 85 1009.1
20260508052306 14 255 0.0 0.0 0.00 0.00 0.00 85 1009.1
20260508051804 14 243 0.0 0.0 0.00 0.00 0.00 85 1009.1
20260508051304 14 305 0.0 0.0 0.00 0.00 0.00 85 1009.0
20260508050804 13 305 0.0 0.0 0.00 0.00 0.00 85 1009.0
20260508050304 13 48 0.0 0.0 0.00 0.00 0.00 86 1009.0
20260508045306 13 48 0.0 0.0 0.00 0.00 0.00 86 1008.8
20260508044804 13 48 0.0 0.0 0.00 0.00 0.00 86 1008.6
20260508044305 13 48 0.0 0.0 0.00 0.00 0.00 87 1008.6
20260508043804 13 48 0.0 0.0 0.00 0.00 0.00 87 1008.5
20260508043305 13 48 0.0 0.0 0.00 0.00 0.00 88 1008.5
20260508042804 13 48 0.0 0.0 0.00 0.00 0.00 89 1008.5
20260508042307 13 48 0.0 0.0 0.00 0.00 0.00 89 1008.5
20260508041804 13 48 0.0 0.0 0.00 0.00 0.00 89 1008.3
20260508041304 13 48 0.0 0.0 0.00 0.00 0.00 89 1008.2
20260508040804 13 48 0.0 0.0 0.00 0.00 0.00 89 1008.2
20260508040304 13 48 0.0 0.0 0.00 0.00 0.00 89 1008.1
20260508035804 13 48 0.0 0.0 0.00 0.00 0.00 89 1008.1
20260508035306 13 48 0.0 0.0 0.00 0.00 0.00 89 1008.0
20260508034805 13 48 0.0 0.0 0.00 0.00 0.00 89 1008.1
20260508034304 13 48 0.0 0.0 0.00 0.00 0.00 89 1008.0
20260508033804 13 48 0.0 0.0 0.00 0.00 0.00 88 1007.9
20260508033304 13 48 0.0 0.0 0.00 0.00 0.00 89 1007.8
20260508032306 13 48 0.0 0.0 0.00 0.00 0.00 89 1007.9
20260508031805 13 48 0.0 0.0 0.00 0.00 0.00 89 1007.8
20260508030804 13 48 0.0 0.0 0.00 0.00 0.00 89 1007.7
20260508030304 13 48 0.0 0.0 0.00 0.00 0.00 88 1007.6
20260508025804 13 48 0.0 0.0 0.00 0.00 0.00 88 1007.5
20260508025306 13 48 0.0 0.0 0.00 0.00 0.00 88 1007.5
20260508024305 13 48 0.0 0.0 0.00 0.00 0.00 88 1007.6
20260508022804 13 49 0.0 0.0 0.00 0.00 0.00 89 1007.3
20260508022307 13 49 0.0 0.0 0.00 0.00 0.00 89 1007.2
20260508021804 13 49 0.0 0.0 0.00 0.00 0.00 89 1007.2
20260508021304 13 49 0.0 0.0 0.00 0.00 0.00 89 1007.2
20260508020804 13 49 0.0 0.0 0.00 0.00 0.00 89 1007.3
20260508020304 13 49 0.0 0.0 0.00 0.00 0.00 88 1007.3
20260508015804 13 49 0.0 0.0 0.00 0.00 0.00 88 1007.3
20260508015306 13 49 0.0 0.0 0.00 0.00 0.00 87 1007.4
20260508014804 14 48 0.0 0.0 0.00 0.00 0.00 87 1007.4
20260508014304 14 48 0.0 0.0 0.00 0.00 0.00 86 1007.3
20260508013803 14 48 0.0 0.0 0.00 0.00 0.00 86 1007.4
20260508012803 14 48 0.0 0.0 0.00 0.00 0.00 85 1007.3
20260508012307 14 46 0.0 0.0 0.00 0.00 0.00 85 1007.4
20260508011804 14 85 0.0 0.0 0.00 0.00 0.00 85 1007.4
20260508011304 14 85 0.0 0.0 0.00 0.00 0.00 85 1007.2
20260508010804 15 85 0.0 0.0 0.00 0.00 0.00 85 1007.1
20260508010304 15 85 0.0 0.0 0.00 0.00 0.00 85 1007.0
20260508005305 15 85 0.0 0.0 0.00 0.00 0.00 86 1007.1
20260508004804 14 83 0.0 0.0 0.00 0.00 0.00 86 1007.1
20260508004304 14 82 0.0 0.0 0.00 0.00 0.00 86 1007.2
20260508003303 14 142 0.0 0.0 0.00 0.00 0.00 86 1007.3
20260508002307 14 25 0.0 0.0 0.00 0.00 0.00 86 1007.6
20260508001807 14 355 0.0 0.0 0.00 0.00 0.00 86 1007.7
20260508001306 14 155 0.0 0.0 0.00 0.00 0.00 86 1007.7
20260508000806 14 38 0.0 0.0 0.00 0.00 0.00 85 1007.7
20260507235806 14 31 0.0 0.0 0.00 0.00 0.00 86 1008.0
20260507235307 14 31 0.0 0.0 0.00 0.00 0.00 86 1008.1
20260507234806 14 26 0.0 0.0 0.00 0.00 0.00 86 1008.2
20260507234307 14 240 0.0 0.0 0.00 0.00 0.00 87 1008.2
20260507233806 14 235 0.0 0.0 0.00 0.00 0.00 87 1008.6
20260507233307 14 112 0.0 0.0 0.00 0.00 0.00 87 1008.7
20260507232806 14 241 0.0 0.0 0.00 0.00 0.00 87 1008.9
20260507232307 14 238 0.0 0.0 0.00 0.00 0.00 87 1009.0
20260507231806 14 92 0.0 0.0 0.00 0.00 0.00 86 1009.2
20260507231306 14 62 0.0 0.0 0.00 0.00 0.00 86 1009.3
20260507230306 14 67 0.0 0.0 0.00 0.00 0.00 85 1009.3
20260507225807 15 66 0.0 0.0 0.00 0.00 0.00 85 1009.3
20260507225306 15 353 0.0 0.0 0.00 0.00 0.00 85 1009.5
20260507224806 15 59 0.0 0.0 0.00 0.00 0.00 85 1009.4
20260507224307 15 91 0.0 0.0 0.00 0.00 0.00 85 1009.7
20260507223806 15 92 0.0 0.0 0.00 0.00 0.00 85 1009.6
20260507223305 15 64 0.0 0.0 0.00 0.00 0.00 85 1009.5
20260507222807 15 32 0.0 0.0 0.00 0.00 0.00 84 1009.5
20260507222306 15 273 0.0 0.0 0.00 0.00 0.00 85 1009.6
20260507221806 15 273 0.0 0.0 0.00 0.00 0.00 85 1009.9
20260507221306 15 150 0.0 0.0 0.00 0.00 0.00 85 1009.6
20260507220833 15 243 0.0 0.0 0.00 0.00 0.00 85 1009.5
20260507220306 15 174 0.0 0.0 0.00 0.00 0.00 85 1009.5
20260507215805 15 233 0.0 0.0 0.00 0.00 0.00 85 1009.2
20260507215307 15 156 0.0 0.0 0.00 0.00 0.00 85 1008.9
20260507214306 15 223 0.0 0.0 0.00 0.00 0.00 84 1008.4
20260507213806 15 34 0.0 0.0 0.00 0.00 0.00 84 1008.3
20260507213306 15 131 0.0 0.0 0.00 0.00 0.00 84 1008.0
20260507212307 15 232 0.0 0.0 0.00 0.00 0.00 84 1008.1
20260507211807 15 354 0.0 0.0 0.00 0.00 0.00 83 1007.8
20260507211307 15 314 0.0 0.0 0.00 0.00 0.00 83 1007.8
20260507210306 15 41 0.0 0.0 0.00 0.00 0.00 83 1007.8
20260507205806 15 213 0.0 0.0 0.00 0.00 0.00 83 1008.0
20260507205307 15 335 0.0 0.0 0.00 0.00 0.00 83 1008.1
20260507204807 15 226 0.0 0.0 0.00 0.00 0.00 83 1008.3
20260507204305 15 143 0.0 0.0 0.00 0.00 0.00 82 1008.2
20260507203805 15 205 0.0 0.0 0.00 0.00 0.00 82 1008.2
20260507202806 15 232 0.0 0.0 0.00 0.00 0.00 81 1007.9
20260507201806 15 18 0.0 0.0 0.00 0.00 0.00 81 1007.8
20260507201305 15 138 0.0 0.0 0.00 0.00 0.00 81 1008.0
20260507200806 15 139 0.0 0.0 0.00 0.00 0.00 81 1008.2
20260507200306 15 164 0.0 0.0 0.00 0.00 0.00 81 1008.4
20260507195807 15 188 0.0 0.0 0.00 0.00 0.00 81 1008.4
20260507194806 15 343 0.0 0.0 0.00 0.00 0.00 81 1008.3
20260507194306 15 335 0.0 0.0 0.00 0.00 0.00 82 1008.0
20260507193806 15 129 0.0 0.0 0.00 0.00 0.00 82 1007.9
20260507192806 15 15 0.0 0.0 0.00 0.00 0.00 81 1007.8
20260507192306 15 141 0.0 0.0 0.00 0.00 0.00 82 1007.6
20260507185806 15 269 0.0 0.0 0.00 0.00 0.00 82 1007.4
20260507185306 15 237 0.0 0.0 0.00 0.00 0.00 82 1007.3
20260507184805 15 230 0.0 0.0 0.00 0.00 0.00 82 1007.3
20260507184307 15 49 0.0 0.0 0.00 0.00 0.00 82 1007.3
20260507183805 15 34 0.0 0.0 0.00 0.00 0.00 81 1007.3
20260507183306 15 28 0.0 0.0 0.00 0.00 0.00 81 1007.3
20260507182806 15 36 0.0 0.0 0.00 0.00 0.00 82 1007.2
20260507182307 15 25 0.0 0.0 0.00 0.00 0.00 82 1007.3
20260507181805 15 145 0.0 0.0 0.00 0.00 0.00 82 1007.4
20260507181308 15 145 0.0 0.0 0.00 0.00 0.00 82 1007.4
20260507180805 15 109 0.0 0.0 0.00 0.00 0.00 81 1007.4
20260507175805 15 135 0.0 0.0 0.00 0.00 0.00 81 1007.3
20260507175307 15 155 0.0 0.0 0.00 0.00 0.00 81 1007.3
20260507174305 15 113 0.0 0.0 0.00 0.00 0.00 80 1007.0
20260507173807 15 76 0.0 0.0 0.00 0.00 0.00 80 1007.1
20260507173306 15 129 0.0 0.0 0.00 0.00 0.00 80 1007.0
20260507172308 16 82 0.0 0.0 0.00 0.00 0.00 79 1007.0
20260507171805 16 42 0.0 0.0 0.00 0.00 0.00 79 1007.0
20260507170805 16 67 0.0 0.0 0.00 0.00 0.00 78 1007.2
20260507170306 16 58 0.0 0.0 0.00 0.00 0.00 78 1007.2
20260507165806 16 333 0.0 0.0 0.00 0.00 0.00 78 1007.3
20260507165306 16 71 0.0 0.0 0.00 0.00 0.00 77 1007.0
20260507164805 16 24 0.0 0.0 0.00 0.00 0.00 77 1006.9
20260507164305 16 99 0.0 0.0 0.00 0.00 0.00 76 1007.1
20260507163306 16 41 0.0 0.0 0.00 0.00 0.00 76 1006.9
20260507162805 16 108 0.0 0.0 0.00 0.00 0.00 76 1006.9
20260507162307 17 312 0.0 0.0 0.00 0.00 0.00 75 1007.1
20260507161805 17 126 0.0 0.0 0.00 0.00 0.00 74 1007.1
20260507161306 17 58 0.0 0.0 0.00 0.00 0.00 73 1007.1
20260507160806 17 8 0.0 0.0 0.00 0.00 0.00 73 1007.0
20260507160306 17 48 0.0 0.0 0.00 0.00 0.00 72 1007.1
20260507155805 17 94 0.0 0.0 0.00 0.00 0.00 72 1007.2
20260507155307 17 223 0.0 0.0 0.00 0.00 0.00 72 1007.4
20260507154805 17 125 0.0 0.0 0.00 0.00 0.00 72 1007.5
20260507154306 17 42 0.0 0.0 0.00 0.00 0.00 72 1007.5
20260507153805 17 78 0.0 0.0 0.00 0.00 0.00 72 1007.3
20260507153305 17 91 0.0 0.0 0.00 0.00 0.00 72 1007.2
20260507152805 17 26 0.0 0.0 0.00 0.00 0.00 72 1007.1
20260507152306 17 121 0.0 0.0 0.00 0.00 0.00 71 1007.1
20260507151806 18 86 0.0 0.0 0.00 0.00 0.00 70 1007.2
20260507151305 18 54 0.0 0.0 0.00 0.00 0.00 70 1007.2
20260507150805 18 36 0.0 0.0 0.00 0.00 0.00 70 1007.1
20260507150306 18 38 0.0 0.0 0.00 0.00 0.00 70 1007.0
20260507145805 18 24 0.0 0.0 0.00 0.00 0.00 70 1006.9
20260507145307 18 114 0.0 0.0 0.00 0.00 0.00 70 1006.7
20260507144805 18 79 0.0 0.0 0.00 0.00 0.00 70 1006.7
20260507144305 18 66 0.0 0.0 0.00 0.00 0.00 70 1006.4
20260507143805 18 70 0.0 0.0 0.00 0.00 0.00 71 1006.3
20260507143305 17 251 0.0 0.0 0.00 0.00 0.00 71 1006.3
20260507142805 18 5 0.0 0.0 0.00 0.00 0.00 69 1006.6
20260507142307 18 85 0.0 0.0 0.00 0.00 0.00 71 1006.6
20260507141805 17 83 0.0 0.0 0.00 0.00 0.00 72 1006.6
20260507141305 17 100 0.0 0.0 0.00 0.00 0.00 72 1006.7
20260507140805 17 125 0.0 0.0 0.00 0.00 0.00 71 1006.8
20260507140305 17 144 0.0 0.0 0.00 0.00 0.00 72 1006.8
20260507135306 17 75 0.0 0.0 0.00 0.00 0.00 71 1006.8
20260507134805 17 75 0.0 0.0 0.00 0.00 0.00 70 1006.7
20260507134305 17 81 0.0 0.0 0.00 0.00 0.00 70 1006.9
20260507133805 17 21 0.0 0.0 0.00 0.00 0.00 70 1006.8
20260507133306 17 52 0.0 0.0 0.00 0.00 0.00 70 1006.6
20260507132307 17 22 0.0 0.0 0.00 0.00 0.00 70 1006.9
20260507131805 17 83 0.0 0.0 0.00 0.00 0.00 69 1006.9
20260507131305 17 25 0.0 0.0 0.00 0.00 0.00 69 1007.0
20260507130306 17 10 0.0 0.0 0.00 0.00 0.00 69 1006.9
20260507125805 17 117 0.0 0.0 0.00 0.00 0.00 69 1006.9
20260507125307 17 44 0.0 0.0 0.00 0.00 0.00 68 1007.1
20260507124805 17 56 0.0 0.0 0.00 0.00 0.00 69 1007.2
20260507124304 17 87 0.0 0.0 0.00 0.00 0.00 68 1007.2
20260507123805 17 13 0.0 0.0 0.00 0.00 0.00 67 1007.5
20260507123304 18 15 0.0 0.0 0.00 0.00 0.00 67 1007.5
20260507122806 18 16 0.0 0.0 0.00 0.00 0.00 67 1007.5
20260507122307 18 47 0.0 0.0 0.00 0.00 0.00 67 1007.5
20260507121805 17 44 0.0 0.0 0.00 0.00 0.00 68 1007.6
20260507121305 17 40 0.0 0.0 0.00 0.00 0.00 67 1007.5
20260507120805 17 139 0.0 0.0 0.00 0.00 0.00 66 1007.1
20260507120305 17 82 0.0 0.0 0.00 0.00 0.00 67 1007.0
20260507115805 17 86 0.0 0.0 0.00 0.00 0.00 67 1007.0
20260507115307 17 27 0.0 0.0 0.00 0.00 0.00 66 1007.0
20260507114805 18 63 0.0 0.0 0.00 0.00 0.00 66 1007.1
20260507114305 17 46 0.0 0.0 0.00 0.00 0.00 66 1006.9
20260507113805 17 36 0.0 0.0 0.00 0.00 0.00 66 1006.8
20260507113306 18 109 0.0 0.0 0.00 0.00 0.00 66 1007.0
20260507112805 17 76 0.0 0.0 0.00 0.00 0.00 67 1007.0
20260507111805 17 67 0.0 0.0 0.00 0.00 0.00 67 1007.2
20260507111305 17 16 0.0 0.0 0.00 0.00 0.00 67 1007.3
20260507110805 17 108 0.0 0.0 0.00 0.00 0.00 68 1007.2
20260507110305 17 91 0.0 0.0 0.00 0.00 0.00 68 1007.1
20260507105805 17 90 0.0 0.0 0.00 0.00 0.00 68 1007.3
20260507105307 17 49 0.0 0.0 0.00 0.00 0.00 69 1007.4
20260507104804 17 114 0.0 0.0 0.00 0.00 0.00 69 1007.3
20260507104305 17 98 0.0 0.0 0.00 0.00 0.00 68 1007.6
20260507103805 17 86 0.0 0.0 0.00 0.00 0.00 68 1007.6
20260507103305 17 81 0.0 0.0 0.00 0.00 0.00 67 1007.5
20260507102805 17 74 0.0 0.0 0.00 0.00 0.00 66 1007.4
20260507102307 17 33 0.0 0.0 0.00 0.00 0.00 66 1007.3
20260507101805 18 4 0.0 0.0 0.00 0.00 0.00 64 1007.2
20260507101305 18 119 0.0 0.0 0.00 0.00 0.00 64 1007.4
20260507100805 18 24 0.0 0.0 0.00 0.00 0.00 63 1007.6
20260507100305 18 15 0.0 0.0 0.00 0.00 0.00 63 1007.5
20260507095306 18 35 0.0 0.0 0.00 0.00 0.00 62 1007.6
20260507094804 18 62 0.0 0.0 0.00 0.00 0.00 62 1007.5
20260507094306 17 67 0.0 0.0 0.00 0.00 0.00 63 1007.6
20260507093804 18 93 0.0 0.0 0.00 0.00 0.00 62 1007.6
20260507093304 17 64 0.0 0.0 0.00 0.00 0.00 63 1007.6
20260507092806 17 52 0.0 0.0 0.00 0.00 0.00 63 1007.7
20260507092307 17 119 0.0 0.0 0.00 0.00 0.00 63 1007.9
20260507091805 17 44 0.0 0.0 0.00 0.00 0.00 62 1008.2
20260507091304 17 95 0.0 0.0 0.00 0.00 0.00 62 1008.1
20260507090805 17 120 0.0 0.0 0.00 0.00 0.00 61 1008.0
20260507090305 17 81 0.0 0.0 0.00 0.00 0.00 62 1007.9
20260507085804 17 112 0.0 0.0 0.00 0.00 0.00 61 1007.8